EW7144 Weather Reports


time (UTC)temp
F
wind
direction
speed
knots
gust
knots
rain 1hr
in
rain 24hr
in
rain mn
in
humidity
%
barometer
mb
20260906162904 50 115 6.1 20.9 0.59 2.31 0.92 92 997.5
20260906161905 50 108 6.1 20.9 0.50 2.17 0.79 91 997.3
20260906161404 50 113 7.8 20.9 0.46 2.11 0.72 91 997.2
20260906160904 51 120 4.3 17.4 0.40 2.05 0.66 92 997.3
20260906160404 51 108 7.8 20.9 0.38 2.02 0.63 91 997.3
20260906155904 52 93 8.7 17.4 0.35 1.98 0.60 92 997.0
20260906155404 52 132 7.8 20.9 0.31 1.94 0.55 91 997.1
20260906154903 53 90 6.1 17.4 0.28 1.90 0.51 91 997.1
20260906154404 53 98 7.8 20.0 0.26 1.87 0.48 91 997.1
20260906153904 54 84 7.8 22.6 0.23 1.83 0.44 92 997.2
20260906153404 56 74 7.8 17.4 0.18 1.77 0.39 92 997.4
20260906152904 56 79 0.9 6.1 0.13 1.72 0.33 92 996.8
20260906151904 56 106 1.7 10.4 0.11 1.67 0.28 92 996.7
20260906151404 57 104 1.7 10.4 0.10 1.65 0.27 92 996.8
20260906150904 57 92 2.6 7.8 0.10 1.65 0.26 92 997.0
20260906145903 57 130 2.6 7.0 0.10 1.63 0.24 92 997.1
20260906145404 57 112 2.6 7.0 0.11 1.62 0.24 92 997.3
20260906144905 57 106 2.6 10.4 0.12 1.62 0.24 92 997.5
20260906143404 57 78 1.7 6.1 0.11 1.59 0.20 92 998.0
20260906142905 57 68 1.7 7.8 0.11 1.58 0.20 92 998.1
20260906141904 57 77 0.9 2.6 0.10 1.56 0.17 92 998.3
20260906141404 57 78 0.0 0.9 0.10 1.55 0.17 92 998.5
20260906140904 57 110 0.0 2.6 0.11 1.54 0.16 92 998.6
20260906140404 57 118 0.9 1.7 0.12 1.54 0.15 92 998.7
20260906135905 57 30 0.9 1.7 0.12 1.53 0.14 92 998.9
20260906135404 57 25 0.0 0.9 0.11 1.51 0.13 92 999.0
20260906134904 57 25 0.0 1.7 0.10 1.50 0.12 91 999.1
20260906134404 57 25 0.9 1.7 0.09 1.50 0.11 92 999.2
20260906133903 57 28 0.9 2.6 0.09 1.49 0.10 92 999.3
20260906133404 57 11 1.7 2.6 0.08 1.48 0.09 91 999.4
20260906132904 57 1 0.9 2.6 0.08 1.47 0.09 91 999.5
20260906132404 57 4 0.9 2.6 0.07 1.46 0.08 91 999.7
20260906131905 57 347 0.9 2.6 0.06 1.46 0.07 91 999.7
20260906130904 57 353 4.3 8.7 0.04 1.43 0.05 92 999.9
20260906130403 57 1 4.3 8.7 0.03 1.42 0.03 92 999.9
20260906125907 57 342 2.6 10.4 0.72 1.41 0.02 92 999.9
20260906125410 58 353 4.3 8.7 0.71 1.40 0.02 92 999.8
20260906124908 57 0 4.3 8.7 0.71 1.40 0.02 92 999.8
20260906123907 58 344 4.3 10.4 0.72 1.40 0.02 92 999.9
20260906123406 58 355 3.5 10.4 0.73 1.40 0.02 92 999.9
20260906122908 58 348 2.6 8.7 0.73 1.39 0.01 92 999.9
20260906121407 58 350 4.3 10.4 0.74 1.39 0.01 92 1000.0
20260906120907 58 342 4.3 10.4 0.75 1.39 0.01 92 1000.0
20260906120407 58 350 4.3 10.4 0.74 1.39 0.00 92 1000.0
20260906115408 58 349 4.3 10.4 0.06 0.69 0.69 91 1000.1
20260906114907 58 350 5.2 10.4 0.06 0.69 0.69 91 1000.2
20260906114407 58 0 3.5 10.4 0.06 0.69 0.69 91 1000.3
20260906113907 58 330 5.2 10.4 0.06 0.69 0.69 91 1000.2
20260906113407 58 336 4.3 10.4 0.08 0.68 0.68 91 1000.3
20260906112907 58 337 3.5 10.4 0.07 0.66 0.66 91 1000.4
20260906112407 58 347 3.5 10.4 0.08 0.66 0.66 91 1000.4
20260906111907 58 354 2.6 8.7 0.07 0.65 0.65 91 1000.5
20260906111407 58 347 4.3 11.3 0.07 0.65 0.65 91 1000.5
20260906110906 57 347 3.5 10.4 0.06 0.65 0.65 91 1000.7
20260906104907 58 351 6.1 13.9 0.07 0.64 0.64 91 1001.0
20260906104407 58 348 7.8 14.8 0.06 0.63 0.63 91 1001.1
20260906103407 58 353 8.7 14.8 0.04 0.60 0.60 91 1001.1
20260906102907 58 354 8.7 14.8 0.03 0.59 0.59 91 1001.2
20260906102406 58 344 6.1 17.4 0.03 0.58 0.58 91 1001.2
20260906101907 58 345 7.0 17.4 0.03 0.58 0.58 91 1001.3
20260906101406 58 352 6.1 13.0 0.03 0.58 0.58 91 1001.3
20260906100906 58 352 6.1 17.4 0.03 0.58 0.58 91 1001.3
20260906095907 58 342 6.1 15.6 0.03 0.57 0.57 91 1001.3
20260906095407 58 350 6.1 13.9 0.03 0.57 0.57 91 1001.3
20260906094907 58 353 6.1 13.0 0.03 0.57 0.57 91 1001.4
20260906094407 58 324 7.0 14.8 0.03 0.57 0.57 91 1001.5
20260906093911 58 342 5.2 13.0 0.02 0.56 0.56 91 1001.6
20260906092907 58 350 7.0 18.2 0.03 0.56 0.56 91 1001.6
20260906092407 58 339 6.1 17.4 0.03 0.55 0.55 91 1001.6
20260906091907 58 338 5.2 12.2 0.03 0.55 0.55 91 1001.7
20260906091407 58 353 8.7 14.8 0.04 0.55 0.55 91 1001.6
20260906090908 58 340 8.7 17.4 0.04 0.55 0.55 91 1001.6
20260906090406 58 342 9.6 17.4 0.03 0.54 0.54 91 1001.6
20260906085907 58 332 9.6 20.0 0.03 0.54 0.54 91 1001.6
20260906084907 58 346 11.3 19.1 0.02 0.54 0.54 91 1001.6
20260906084407 58 345 10.4 24.3 0.03 0.54 0.54 91 1001.5
20260906083908 59 337 10.4 20.9 0.03 0.54 0.54 91 1001.5
20260906083407 59 341 9.6 22.6 0.02 0.53 0.53 91 1001.4
20260906082907 59 353 11.3 20.9 0.03 0.53 0.53 91 1001.4
20260906082407 59 342 11.3 22.6 0.04 0.52 0.52 91 1001.4
20260906081908 59 348 11.3 20.9 0.05 0.52 0.52 91 1001.4
20260906081407 59 341 9.6 20.9 0.05 0.51 0.51 91 1001.5
20260906080907 59 352 10.4 24.3 0.05 0.51 0.51 91 1001.5
20260906080407 59 342 13.0 21.7 0.05 0.51 0.51 91 1001.6
20260906075907 59 343 11.3 19.1 0.06 0.51 0.51 91 1001.5
20260906075408 59 344 11.3 22.6 0.06 0.51 0.51 91 1001.5
20260906074907 59 348 11.3 22.6 0.06 0.51 0.51 91 1001.6
20260906074408 59 356 13.9 24.3 0.06 0.50 0.50 91 1001.6
20260906073907 59 345 12.2 20.9 0.08 0.50 0.50 91 1001.7
20260906072907 59 346 13.0 22.6 0.08 0.50 0.50 91 1001.7
20260906072407 59 348 13.0 21.7 0.07 0.48 0.48 91 1001.8
20260906071907 59 348 12.2 26.1 0.06 0.47 0.47 91 1001.8
20260906071407 59 346 11.3 24.3 0.06 0.46 0.46 91 1001.8
20260906070407 59 357 15.6 26.1 0.06 0.46 0.46 91 1002.0
20260906065907 59 341 12.2 24.3 0.05 0.46 0.46 91 1001.9
20260906065407 59 350 13.9 25.2 0.04 0.45 0.45 91 1001.8
20260906064906 59 337 14.8 24.3 0.04 0.45 0.45 91 1001.9
20260906064406 59 347 14.8 25.2 0.03 0.44 0.44 91 1001.8
20260906063907 59 349 12.2 24.3 0.02 0.43 0.43 91 1002.0
20260906063407 59 346 16.5 33.0 0.01 0.42 0.42 91 1001.9
20260906062407 59 353 15.6 26.9 0.00 0.41 0.41 90 1001.9
20260906061408 59 344 14.8 30.4 0.00 0.41 0.41 91 1001.8
20260906060906 59 347 16.5 22.6 0.00 0.41 0.41 91 1002.0
20260906060407 59 349 13.9 25.2 0.00 0.41 0.41 91 1002.1
20260906055906 59 351 12.2 22.6 0.00 0.41 0.41 90 1002.0
20260906055407 59 328 12.2 22.6 0.00 0.41 0.41 91 1002.1
20260906054908 59 344 12.2 26.9 0.00 0.41 0.41 90 1002.1
20260906052906 59 344 13.9 26.1 0.00 0.41 0.41 91 1002.4
20260906052407 59 348 12.2 21.7 0.00 0.41 0.41 91 1002.5
20260906051907 59 346 14.8 38.2 0.00 0.41 0.41 91 1002.5
20260906051406 59 358 14.8 30.4 0.00 0.41 0.41 90 1002.4
20260906050906 59 338 15.6 30.4 0.00 0.41 0.41 90 1002.5
20260906050406 59 341 14.8 28.7 0.00 0.41 0.41 90 1002.5
20260906045906 59 357 13.9 25.2 0.00 0.41 0.41 90 1002.4
20260906045407 59 3 14.8 26.9 0.00 0.41 0.41 90 1002.4
20260906044407 59 341 14.8 30.4 0.00 0.41 0.41 90 1002.3
20260906043907 59 349 16.5 26.1 0.00 0.41 0.41 90 1002.4
20260906043406 59 355 18.2 31.3 0.00 0.41 0.41 90 1002.3
20260906042906 59 354 16.5 33.0 0.00 0.41 0.41 90 1002.4
20260906041907 59 350 15.6 30.4 0.00 0.41 0.41 90 1002.5
20260906041406 59 346 14.8 26.1 0.00 0.41 0.41 90 1002.6
20260906040907 59 339 17.4 30.4 0.00 0.41 0.41 91 1002.6
20260906040406 59 353 17.4 31.3 0.00 0.41 0.41 91 1002.6
20260906035906 59 336 13.9 26.1 0.00 0.41 0.41 91 1002.7
20260906035406 59 353 15.6 32.2 0.00 0.41 0.41 91 1002.7
20260906034907 59 346 17.4 28.7 0.00 0.41 0.41 91 1002.9
20260906034406 58 349 17.4 27.8 0.01 0.41 0.41 91 1003.0
20260906033906 58 336 14.8 30.4 0.02 0.41 0.41 91 1003.1
20260906033406 58 346 14.8 30.4 0.02 0.41 0.41 91 1003.0
20260906032907 58 348 17.4 30.4 0.02 0.41 0.41 91 1003.3
20260906032407 58 351 17.4 31.3 0.02 0.41 0.41 91 1003.2
20260906031906 58 341 18.2 30.4 0.03 0.41 0.41 91 1003.1
20260906031406 58 354 17.4 27.8 0.04 0.41 0.41 91 1003.2
20260906030907 58 352 17.4 32.2 0.06 0.41 0.41 91 1003.4
20260906025907 58 343 13.9 25.2 0.07 0.41 0.41 90 1003.4
20260906024906 58 335 15.6 27.8 0.07 0.41 0.41 90 1003.4
20260906024407 57 348 14.8 30.4 0.08 0.40 0.40 90 1003.5
20260906023906 57 358 13.9 34.8 0.09 0.39 0.39 90 1003.7
20260906023407 57 350 13.0 24.3 0.09 0.39 0.39 90 1003.6
20260906022906 57 344 15.6 26.1 0.10 0.39 0.39 90 1003.5
20260906022406 57 354 16.5 26.1 0.10 0.39 0.39 90 1003.6
20260906021907 57 344 14.8 24.3 0.09 0.38 0.38 90 1003.5
20260906021406 57 336 17.4 31.3 0.09 0.37 0.37 90 1003.6
20260906020906 57 348 14.8 25.2 0.06 0.35 0.35 89 1003.8
20260906020407 57 347 13.9 28.7 0.06 0.34 0.34 89 1003.9
20260906015407 57 351 14.8 30.4 0.06 0.34 0.34 89 1004.1
20260906013407 56 358 12.2 33.0 0.03 0.30 0.30 88 1004.8
20260906012407 56 348 11.3 26.9 0.05 0.28 0.28 87 1005.0
20260906011906 56 341 14.8 25.2 0.05 0.28 0.28 88 1005.5
20260906011407 56 355 15.6 30.4 0.06 0.28 0.28 88 1005.6
20260906010908 56 350 14.8 26.9 0.06 0.28 0.28 89 1005.7
20260906005907 56 357 11.3 18.2 0.08 0.28 0.28 89 1005.9
20260906004407 56 351 11.3 19.1 0.09 0.28 0.28 90 1006.4
20260906003907 56 348 11.3 22.6 0.09 0.27 0.27 90 1006.3
20260906003407 56 349 11.3 18.2 0.09 0.27 0.27 90 1006.5
20260906002906 56 344 15.6 24.3 0.09 0.25 0.25 90 1006.6
20260906002408 56 356 10.4 18.2 0.08 0.24 0.24 90 1006.8
20260906001907 56 347 7.0 13.9 0.09 0.24 0.24 90 1007.0
20260906001408 56 341 9.6 17.4 0.09 0.23 0.23 90 1007.4
20260906000907 56 355 7.8 13.9 0.09 0.22 0.22 90 1007.7
20260906000407 56 350 8.7 13.0 0.09 0.20 0.20 90 1007.6
20260905235908 56 352 8.7 19.1 0.09 0.20 0.20 90 1007.3
20260905235407 56 0 8.7 17.4 0.08 0.20 0.20 90 1007.3
20260905234907 56 342 7.8 15.6 0.07 0.19 0.19 90 1007.6
20260905234406 56 351 7.8 13.0 0.07 0.19 0.19 90 1008.0
20260905233906 56 348 7.8 17.4 0.06 0.18 0.18 90 1008.4
20260905233407 56 350 9.6 20.9 0.06 0.17 0.17 90 1008.6
20260905232907 56 343 10.4 24.3 0.05 0.17 0.17 90 1008.8
20260905232407 56 351 9.6 22.6 0.04 0.16 0.16 90 1008.7
20260905231906 57 333 8.7 18.2 0.03 0.15 0.15 90 1008.8
20260905230907 57 346 9.6 17.4 0.01 0.13 0.13 89 1009.0
20260905225907 57 348 6.1 15.6 0.00 0.12 0.12 89 1008.9
20260905225407 57 351 7.8 15.6 0.00 0.12 0.12 90 1009.0
20260905224406 57 353 7.8 17.4 0.00 0.12 0.12 90 1009.1
20260905223907 56 341 7.8 17.4 0.00 0.12 0.12 90 1009.1
20260905223408 56 343 8.7 19.1 0.01 0.12 0.12 90 1009.1
20260905222906 56 341 8.7 18.2 0.01 0.12 0.12 90 1009.1
20260905222406 56 352 10.4 15.6 0.01 0.12 0.12 90 1009.2
20260905221906 56 351 8.7 17.4 0.01 0.12 0.12 90 1009.3
20260905221407 56 333 7.8 14.8 0.01 0.12 0.12 90 1009.3
20260905220907 56 345 7.8 13.0 0.01 0.12 0.12 90 1009.4
20260905220407 56 334 7.8 15.6 0.01 0.12 0.12 90 1009.5
20260905215907 56 348 6.1 15.6 0.01 0.12 0.12 90 1009.6
20260905215407 56 352 7.0 13.0 0.01 0.12 0.12 90 1009.7
20260905214907 56 336 8.7 17.4 0.02 0.12 0.12 90 1009.7
20260905214406 56 343 7.0 12.2 0.02 0.12 0.12 90 1009.7
20260905213907 56 346 7.0 15.6 0.03 0.12 0.12 90 1009.9
20260905213407 56 346 8.7 15.6 0.02 0.11 0.11 90 1010.0
20260905212907 56 326 7.8 13.0 0.02 0.11 0.11 90 1010.1
20260905211911 56 342 10.4 18.2 0.03 0.11 0.11 90 1010.2
20260905211407 56 356 7.0 14.8 0.03 0.11 0.11 90 1010.3
20260905210906 56 348 8.7 17.4 0.04 0.11 0.11 90 1010.3
20260905210406 56 349 8.7 17.4 0.05 0.11 0.11 90 1010.4
20260905205907 56 349 10.4 15.6 0.05 0.11 0.11 90 1010.5
20260905205407 56 351 10.4 15.6 0.05 0.11 0.11 90 1010.7
20260905204907 56 346 8.7 17.4 0.05 0.10 0.10 90 1010.7
20260905204406 56 346 8.7 14.8 0.04 0.09 0.09 90 1010.8
20260905203907 56 354 10.4 17.4 0.04 0.09 0.09 90 1010.9
20260905203406 56 348 10.4 18.2 0.04 0.09 0.09 90 1010.9
20260905202907 56 345 8.7 13.9 0.05 0.09 0.09 90 1011.0
20260905202406 56 341 7.8 15.6 0.06 0.09 0.09 90 1011.0
20260905201907 56 348 10.4 15.6 0.05 0.08 0.08 90 1011.0
20260905201407 56 340 7.8 18.2 0.05 0.08 0.08 90 1010.9
20260905200907 56 320 8.7 15.6 0.04 0.07 0.07 90 1010.9
20260905200407 56 343 10.4 18.2 0.06 0.06 0.06 90 1011.0
20260905195907 56 349 9.6 15.6 0.06 0.06 0.06 90 1011.0
20260905195406 56 332 8.7 17.4 0.06 0.06 0.06 90 1011.0
20260905194907 56 343 7.8 13.0 0.06 0.06 0.06 90 1011.1
20260905194407 56 347 7.8 14.8 0.06 0.06 0.06 90 1011.0
20260905193907 56 335 6.1 15.6 0.05 0.05 0.05 90 1011.0
20260905193406 56 348 8.7 17.4 0.05 0.05 0.05 90 1011.1
20260905190907 56 343 9.6 15.6 0.03 0.03 0.03 90 1011.0
20260905190406 56 340 7.8 13.9 0.00 0.00 0.00 90 1011.0
20260905185906 56 346 7.0 14.8 0.00 0.00 0.00 90 1011.1
20260905185407 56 351 7.8 17.4 0.00 0.00 0.00 90 1011.0
20260905184406 56 348 7.0 13.0 0.00 0.00 0.00 90 1011.2
20260905183406 56 352 6.1 13.0 0.00 0.00 0.00 89 1011.2
20260905182906 56 335 5.2 10.4 0.00 0.00 0.00 89 1011.2
20260905182406 56 345 6.1 11.3 0.00 0.00 0.00 89 1011.2
20260905180906 56 345 4.3 10.4 0.00 0.00 0.00 89 1011.1
20260905180407 56 342 4.3 10.4 0.00 0.00 0.00 89 1011.0
20260905175907 56 340 3.5 13.9 0.00 0.00 0.00 89 1011.0
20260905175406 56 350 7.8 12.2 0.00 0.00 0.00 89 1011.2
20260905174406 56 340 6.1 13.9 0.00 0.00 0.00 89 1011.2
20260905173907 56 351 7.0 12.2 0.00 0.00 0.00 89 1011.2
20260905173407 56 348 7.8 11.3 0.00 0.00 0.00 89 1011.1
20260905172906 56 351 7.0 13.0 0.00 0.00 0.00 89 1011.0
20260905172406 56 340 7.8 12.2 0.00 0.00 0.00 89 1011.0
20260905171907 56 338 8.7 17.4 0.00 0.00 0.00 89 1011.0
20260905170906 56 345 7.8 15.6 0.00 0.00 0.00 89 1011.1
20260905170407 56 347 7.0 12.2 0.00 0.00 0.00 89 1011.1
20260905165906 57 339 5.2 13.9 0.00 0.00 0.00 89 1011.2
20260905165406 57 350 7.8 17.4 0.00 0.00 0.00 89 1011.2
20260905164906 56 342 7.8 13.0 0.00 0.00 0.00 89 1011.1
20260905163906 56 329 6.1 14.8 0.00 0.00 0.00 89 1011.0
20260905163406 56 345 8.7 17.4 0.00 0.00 0.00 89 1010.8